User: anonymous   Login
Location: Gleizolles
(44.4833°N, 6.7667°E)
Time: 06:53:15
(UTC+00:00)
Language:

CAS-4A - Orbit

View from above orbital plane
View from above orbital plane
View from above satellite
View from above satellite

Ground track
Ground track

The orbit data is extracted from the following two-line orbital elements,

1 42761U 17034D   24201.84256768  .00023114  00000-0  79495-3 0  9998
2 42761  43.0207  40.1630 0011518 223.7702 136.2239 15.29591894392419
Epoch (UTC): 19 July 2024 20:13:17
Eccentricity: 0.0011518
inclination: 43.0207°
perigee height: 469 km
apogee height: 485 km
right ascension of ascending node: 40.1630°
argument of perigee: 223.7702°
revolutions per day: 15.29591894
mean anomaly at epoch: 136.2239°
orbit number at epoch: 39241

The dashed part of the orbit path shows where the satellite is in the earth's shadow,  

DLR